| time (UTC) | temp C | wind direction | speed KPH | gust KPH | rain 1hr cm | rain 24hr cm | rain mn cm | humidity % | barometer mb |
| 20260503224900 | 26 | 4 | 1.6 | 11.3 | 0.00 | 0.00 | 0.00 | 42 | 1008.7 |
| 20260503224357 | 26 | 309 | 4.8 | 11.3 | 0.00 | 0.00 | 0.00 | 43 | 1008.9 |
| 20260503223855 | 26 | 285 | 6.4 | 11.3 | 0.00 | 0.00 | 0.00 | 43 | 1008.9 |
| 20260503223353 | 26 | 285 | 6.4 | 9.7 | 0.00 | 0.00 | 0.00 | 43 | 1009.0 |
| 20260503222848 | 26 | 281 | 4.8 | 9.7 | 0.00 | 0.00 | 0.00 | 44 | 1009.0 |
| 20260503222347 | 26 | 302 | 9.7 | 11.3 | 0.00 | 0.00 | 0.00 | 44 | 1009.3 |
| 20260503221844 | 26 | 309 | 3.2 | 11.3 | 0.00 | 0.00 | 0.00 | 46 | 1009.3 |
| 20260503221343 | 26 | 341 | 4.8 | 8.0 | 0.00 | 0.00 | 0.00 | 45 | 1009.3 |
| 20260503220838 | 26 | 310 | 9.7 | 16.1 | 0.00 | 0.00 | 0.00 | 45 | 1009.6 |
| 20260503220336 | 25 | 301 | 4.8 | 9.7 | 0.00 | 0.00 | 0.00 | 47 | 1009.4 |
| 20260503215832 | 26 | 316 | 6.4 | 16.1 | 0.00 | 0.00 | 0.00 | 46 | 1009.6 |
| 20260503215329 | 26 | 35 | 4.8 | 11.3 | 0.00 | 0.00 | 0.00 | 44 | 1009.6 |
| 20260503214827 | 25 | 283 | 6.4 | 12.9 | 0.00 | 0.00 | 0.00 | 46 | 1009.5 |
| 20260503214324 | 26 | 279 | 6.4 | 12.9 | 0.00 | 0.00 | 0.00 | 45 | 1009.7 |
| 20260503213822 | 25 | 357 | 4.8 | 14.5 | 0.00 | 0.00 | 0.00 | 45 | 1009.7 |
| 20260503213319 | 25 | 348 | 9.7 | 14.5 | 0.00 | 0.00 | 0.00 | 43 | 1009.7 |
| 20260503212816 | 25 | 297 | 8.0 | 17.7 | 0.00 | 0.00 | 0.00 | 45 | 1009.7 |
| 20260503212314 | 25 | 47 | 4.8 | 22.5 | 0.00 | 0.00 | 0.00 | 44 | 1009.8 |
| 20260503211811 | 25 | 304 | 4.8 | 12.9 | 0.00 | 0.00 | 0.00 | 44 | 1009.9 |
| 20260503211308 | 25 | 284 | 3.2 | 14.5 | 0.00 | 0.00 | 0.00 | 46 | 1009.8 |
| 20260503210807 | 25 | 340 | 4.8 | 16.1 | 0.00 | 0.00 | 0.00 | 47 | 1009.7 |
| 20260503210306 | 25 | 34 | 4.8 | 12.9 | 0.00 | 0.00 | 0.00 | 47 | 1010.0 |
| 20260503205800 | 25 | 283 | 4.8 | 11.3 | 0.00 | 0.00 | 0.00 | 48 | 1010.1 |
| 20260503205257 | 25 | 294 | 8.0 | 11.3 | 0.00 | 0.00 | 0.00 | 46 | 1010.0 |
| 20260503204753 | 25 | 344 | 6.4 | 12.9 | 0.00 | 0.00 | 0.00 | 47 | 1009.9 |
| 20260503204251 | 25 | 310 | 4.8 | 16.1 | 0.00 | 0.00 | 0.00 | 47 | 1010.0 |
| 20260503203748 | 25 | 268 | 1.6 | 6.4 | 0.00 | 0.00 | 0.00 | 47 | 1010.1 |
| 20260503203245 | 25 | 304 | 6.4 | 9.7 | 0.00 | 0.00 | 0.00 | 45 | 1010.2 |
| 20260503202742 | 24 | 284 | 8.0 | 8.0 | 0.00 | 0.00 | 0.00 | 48 | 1010.4 |
| 20260503202240 | 23 | 278 | 4.8 | 12.9 | 0.00 | 0.00 | 0.00 | 48 | 1010.0 |
| 20260503201738 | 23 | 321 | 3.2 | 9.7 | 0.00 | 0.00 | 0.00 | 49 | 1010.2 |
| 20260503201235 | 23 | 288 | 3.2 | 14.5 | 0.00 | 0.00 | 0.00 | 48 | 1010.5 |
| 20260503200732 | 24 | 284 | 8.0 | 14.5 | 0.00 | 0.00 | 0.00 | 47 | 1010.3 |
| 20260503200228 | 23 | 39 | 6.4 | 11.3 | 0.00 | 0.00 | 0.00 | 49 | 1010.6 |
| 20260503195725 | 23 | 342 | 3.2 | 8.0 | 0.00 | 0.00 | 0.00 | 50 | 1010.5 |
| 20260503195222 | 23 | 346 | 4.8 | 11.3 | 0.00 | 0.00 | 0.00 | 48 | 1011.0 |
| 20260503194720 | 23 | 338 | 6.4 | 11.3 | 0.00 | 0.00 | 0.00 | 48 | 1011.0 |
| 20260503194215 | 23 | 284 | 4.8 | 12.9 | 0.00 | 0.00 | 0.00 | 49 | 1010.8 |
| 20260503193711 | 23 | 261 | 0.0 | 9.7 | 0.00 | 0.00 | 0.00 | 49 | 1011.1 |
| 20260503193208 | 23 | 340 | 1.6 | 11.3 | 0.00 | 0.00 | 0.00 | 50 | 1011.1 |
| 20260503192703 | 22 | 8 | 3.2 | 8.0 | 0.00 | 0.00 | 0.00 | 48 | 1011.1 |
| 20260503192159 | 22 | 306 | 4.8 | 12.9 | 0.00 | 0.00 | 0.00 | 48 | 1011.2 |
| 20260503191655 | 22 | 294 | 6.4 | 9.7 | 0.00 | 0.00 | 0.00 | 48 | 1011.3 |
| 20260503191153 | 22 | 10 | 6.4 | 12.9 | 0.00 | 0.00 | 0.00 | 48 | 1011.3 |
| 20260503190649 | 22 | 291 | 9.7 | 12.9 | 0.00 | 0.00 | 0.00 | 48 | 1011.4 |
| 20260503190146 | 22 | 304 | 19.3 | 20.9 | 0.00 | 0.00 | 0.00 | 48 | 1011.3 |
| 20260503185643 | 22 | 274 | 3.2 | 16.1 | 0.00 | 0.00 | 0.00 | 52 | 1011.5 |
| 20260503185138 | 22 | 283 | 6.4 | 17.7 | 0.00 | 0.00 | 0.00 | 47 | 1011.5 |
| 20260503184634 | 22 | 300 | 8.0 | 14.5 | 0.00 | 0.00 | 0.00 | 50 | 1011.6 |
| 20260503184130 | 22 | 279 | 4.8 | 12.9 | 0.00 | 0.00 | 0.00 | 51 | 1011.6 |
| 20260503183627 | 22 | 276 | 3.2 | 16.1 | 0.00 | 0.00 | 0.00 | 52 | 1011.7 |
| 20260503183124 | 22 | 327 | 6.4 | 11.3 | 0.00 | 0.00 | 0.00 | 54 | 1011.7 |
| 20260503182622 | 21 | 317 | 6.4 | 14.5 | 0.00 | 0.00 | 0.00 | 57 | 1011.4 |
| 20260503182120 | 21 | 286 | 4.8 | 14.5 | 0.00 | 0.00 | 0.00 | 59 | 1011.7 |
| 20260503181617 | 21 | 261 | 3.2 | 14.5 | 0.00 | 0.00 | 0.00 | 59 | 1011.7 |
| 20260503181114 | 21 | 347 | 4.8 | 12.9 | 0.00 | 0.00 | 0.00 | 56 | 1011.8 |
| 20260503180611 | 21 | 26 | 3.2 | 17.7 | 0.00 | 0.00 | 0.00 | 58 | 1011.9 |
| 20260503180109 | 20 | 276 | 4.8 | 20.9 | 0.00 | 0.00 | 0.00 | 61 | 1012.0 |
| 20260503175605 | 21 | 322 | 3.2 | 8.0 | 0.00 | 0.00 | 0.00 | 58 | 1012.1 |
| 20260503175102 | 20 | 0 | 4.8 | 11.3 | 0.00 | 0.00 | 0.00 | 59 | 1012.2 |
| 20260503174559 | 20 | 310 | 3.2 | 9.7 | 0.00 | 0.00 | 0.00 | 60 | 1012.1 |
| 20260503174056 | 20 | 309 | 0.0 | 8.0 | 0.00 | 0.00 | 0.00 | 63 | 1012.2 |
| 20260503173551 | 20 | 32 | 3.2 | 9.7 | 0.00 | 0.00 | 0.00 | 61 | 1012.1 |
| 20260503173047 | 20 | 351 | 6.4 | 9.7 | 0.00 | 0.00 | 0.00 | 63 | 1012.2 |
| 20260503172545 | 20 | 348 | 1.6 | 8.0 | 0.00 | 0.00 | 0.00 | 62 | 1012.4 |
| 20260503172042 | 19 | 307 | 3.2 | 4.8 | 0.00 | 0.00 | 0.00 | 64 | 1012.3 |
| 20260503171538 | 19 | 344 | 3.2 | 6.4 | 0.00 | 0.00 | 0.00 | 63 | 1012.4 |
| 20260503171036 | 18 | 340 | 3.2 | 6.4 | 0.00 | 0.00 | 0.00 | 64 | 1012.4 |
| 20260503170532 | 18 | 355 | 4.8 | 6.4 | 0.00 | 0.00 | 0.00 | 64 | 1012.5 |
| 20260503150907 | 12 | 212 | 0.0 | 4.8 | 0.00 | 0.00 | 0.00 | 85 | 1012.8 |
| 20260503150403 | 12 | 254 | 1.6 | 6.4 | 0.00 | 0.00 | 0.00 | 86 | 1012.9 |
| 20260503131256 | 9 | 8 | 3.2 | 4.8 | 0.00 | 0.00 | 0.00 | 92 | 1012.5 |
| 20260503130754 | 9 | 55 | 0.0 | 4.8 | 0.00 | 0.00 | 0.00 | 92 | 1012.5 |
| 20260503130251 | 9 | 69 | 3.2 | 4.8 | 0.00 | 0.00 | 0.00 | 92 | 1012.4 |
| 20260503120217 | 10 | 74 | 0.0 | 4.8 | 0.00 | 0.00 | 0.00 | 91 | 1012.8 |
| 20260503110645 | 10 | 77 | 4.8 | 4.8 | 0.00 | 0.00 | 0.00 | 90 | 1012.7 |
| 20260503110142 | 10 | 97 | 4.8 | 6.4 | 0.00 | 0.00 | 0.00 | 90 | 1012.7 |
| 20260503100109 | 11 | 84 | 3.2 | 4.8 | 0.00 | 0.00 | 0.00 | 88 | 1012.5 |
| 20260503081458 | 12 | 88 | 3.2 | 6.4 | 0.00 | 0.00 | 0.00 | 82 | 1012.9 |
| 20260503080955 | 12 | 92 | 4.8 | 8.0 | 0.00 | 0.00 | 0.00 | 81 | 1012.7 |
| 20260503080451 | 12 | 85 | 3.2 | 6.4 | 0.00 | 0.00 | 0.00 | 81 | 1012.7 |
| 20260503072928 | 12 | 99 | 4.8 | 6.4 | 0.00 | 0.00 | 0.00 | 79 | 1012.5 |
| 20260503072425 | 12 | 92 | 3.2 | 4.8 | 0.00 | 0.00 | 0.00 | 78 | 1012.8 |
| 20260503071922 | 13 | 93 | 4.8 | 6.4 | 0.00 | 0.00 | 0.00 | 77 | 1012.5 |
| 20260503071419 | 13 | 87 | 4.8 | 6.4 | 0.00 | 0.00 | 0.00 | 76 | 1012.6 |
| 20260503070915 | 13 | 85 | 3.2 | 8.0 | 0.00 | 0.00 | 0.00 | 75 | 1012.6 |
| 20260503070412 | 13 | 94 | 4.8 | 8.0 | 0.00 | 0.00 | 0.00 | 74 | 1012.8 |
| 20260503060338 | 15 | 68 | 3.2 | 4.8 | 0.00 | 0.00 | 0.00 | 64 | 1012.2 |
| 20260503054826 | 15 | 63 | 1.6 | 4.8 | 0.00 | 0.00 | 0.00 | 68 | 1012.3 |
| 20260503054322 | 15 | 62 | 3.2 | 4.8 | 0.00 | 0.00 | 0.00 | 67 | 1012.3 |
| 20260503053820 | 15 | 97 | 3.2 | 4.8 | 0.00 | 0.00 | 0.00 | 69 | 1012.4 |
| 20260503053318 | 15 | 79 | 3.2 | 4.8 | 0.00 | 0.00 | 0.00 | 69 | 1012.3 |
| 20260503052814 | 15 | 81 | 3.2 | 4.8 | 0.00 | 0.00 | 0.00 | 68 | 1012.4 |
| 20260503052311 | 15 | 79 | 3.2 | 4.8 | 0.00 | 0.00 | 0.00 | 67 | 1012.3 |
| 20260503051807 | 16 | 98 | 3.2 | 4.8 | 0.00 | 0.00 | 0.00 | 65 | 1012.4 |
| 20260503051304 | 16 | 68 | 3.2 | 4.8 | 0.00 | 0.00 | 0.00 | 63 | 1012.2 |
| 20260503050800 | 16 | 73 | 3.2 | 3.2 | 0.00 | 0.00 | 0.00 | 61 | 1012.1 |
| 20260503050257 | 16 | 110 | 1.6 | 4.8 | 0.00 | 0.00 | 0.00 | 60 | 1012.2 |
| 20260503045754 | 17 | 77 | 1.6 | 3.2 | 0.00 | 0.00 | 0.00 | 60 | 1012.2 |
| 20260503045252 | 17 | 97 | 1.6 | 3.2 | 0.00 | 0.00 | 0.00 | 59 | 1012.0 |
| 20260503044747 | 17 | 340 | 3.2 | 4.8 | 0.00 | 0.00 | 0.00 | 59 | 1011.9 |
| 20260503044239 | 17 | 75 | 1.6 | 6.4 | 0.00 | 0.00 | 0.00 | 59 | 1012.1 |
| 20260503043736 | 17 | 59 | 0.0 | 4.8 | 0.00 | 0.00 | 0.00 | 59 | 1011.9 |
| 20260503043228 | 17 | 44 | 4.8 | 4.8 | 0.00 | 0.00 | 0.00 | 58 | 1012.0 |
| 20260503042723 | 17 | 68 | 1.6 | 4.8 | 0.00 | 0.00 | 0.00 | 59 | 1011.9 |
| 20260503042221 | 17 | 82 | 1.6 | 3.2 | 0.00 | 0.00 | 0.00 | 59 | 1011.9 |
| 20260503041716 | 17 | 83 | 0.0 | 4.8 | 0.00 | 0.00 | 0.00 | 59 | 1011.7 |
| 20260503041214 | 17 | 35 | 1.6 | 1.6 | 0.00 | 0.00 | 0.00 | 60 | 1011.8 |
| 20260503040711 | 17 | 37 | 0.0 | 3.2 | 0.00 | 0.00 | 0.00 | 60 | 1011.6 |
| 20260503040209 | 17 | 72 | 0.0 | 3.2 | 0.00 | 0.00 | 0.00 | 59 | 1011.6 |
| 20260503035706 | 17 | 124 | 0.0 | 3.2 | 0.00 | 0.00 | 0.00 | 58 | 1011.4 |
| 20260503035203 | 18 | 144 | 0.0 | 3.2 | 0.00 | 0.00 | 0.00 | 58 | 1011.6 |
| 20260503034701 | 18 | 296 | 0.0 | 6.4 | 0.00 | 0.00 | 0.00 | 56 | 1011.3 |
| 20260503034157 | 18 | 315 | 0.0 | 3.2 | 0.00 | 0.00 | 0.00 | 55 | 1011.2 |
| 20260503033655 | 18 | 309 | 4.8 | 8.0 | 0.00 | 0.00 | 0.00 | 54 | 1011.2 |
| 20260503033152 | 18 | 328 | 3.2 | 4.8 | 0.00 | 0.00 | 0.00 | 54 | 1011.0 |
| 20260503032650 | 18 | 303 | 3.2 | 4.8 | 0.00 | 0.00 | 0.00 | 54 | 1010.8 |
| 20260503032149 | 19 | 309 | 0.0 | 3.2 | 0.00 | 0.00 | 0.00 | 54 | 1010.7 |
| 20260503031645 | 20 | 332 | 0.0 | 3.2 | 0.00 | 0.00 | 0.00 | 52 | 1011.0 |
| 20260503031143 | 20 | 316 | 3.2 | 4.8 | 0.00 | 0.00 | 0.00 | 51 | 1010.8 |
| 20260503030639 | 20 | 326 | 3.2 | 6.4 | 0.00 | 0.00 | 0.00 | 50 | 1010.7 |
| 20260503030136 | 20 | 338 | 4.8 | 4.8 | 0.00 | 0.00 | 0.00 | 49 | 1011.1 |
| 20260503025632 | 21 | 295 | 4.8 | 8.0 | 0.00 | 0.00 | 0.00 | 48 | 1010.7 |
| 20260503025131 | 20 | 352 | 1.6 | 6.4 | 0.00 | 0.00 | 0.00 | 48 | 1011.0 |
| 20260503024627 | 21 | 300 | 6.4 | 8.0 | 0.00 | 0.00 | 0.00 | 48 | 1010.6 |
| 20260503024124 | 21 | 328 | 0.0 | 6.4 | 0.00 | 0.00 | 0.00 | 48 | 1011.0 |
| 20260503023621 | 21 | 3 | 6.4 | 11.3 | 0.00 | 0.00 | 0.00 | 47 | 1010.6 |
| 20260503023118 | 21 | 294 | 4.8 | 8.0 | 0.00 | 0.00 | 0.00 | 46 | 1010.7 |
| 20260503022614 | 21 | 301 | 3.2 | 11.3 | 0.00 | 0.00 | 0.00 | 46 | 1010.7 |
| 20260503022108 | 21 | 338 | 4.8 | 17.7 | 0.00 | 0.00 | 0.00 | 46 | 1010.8 |
| 20260503021606 | 21 | 302 | 11.3 | 16.1 | 0.00 | 0.00 | 0.00 | 45 | 1010.7 |
| 20260503021103 | 21 | 320 | 4.8 | 11.3 | 0.00 | 0.00 | 0.00 | 45 | 1010.8 |
| 20260503020559 | 21 | 347 | 8.0 | 12.9 | 0.00 | 0.00 | 0.00 | 45 | 1010.4 |
| 20260503020056 | 21 | 304 | 4.8 | 11.3 | 0.00 | 0.00 | 0.00 | 45 | 1010.6 |
| 20260503015553 | 21 | 335 | 6.4 | 14.5 | 0.00 | 0.00 | 0.00 | 44 | 1010.7 |
| 20260503015051 | 22 | 314 | 6.4 | 12.9 | 0.00 | 0.00 | 0.00 | 44 | 1011.0 |
| 20260503014546 | 21 | 289 | 9.7 | 14.5 | 0.00 | 0.00 | 0.00 | 43 | 1010.8 |
| 20260503014044 | 22 | 313 | 6.4 | 19.3 | 0.00 | 0.00 | 0.00 | 44 | 1010.8 |
| 20260503013541 | 22 | 250 | 3.2 | 17.7 | 0.00 | 0.00 | 0.00 | 43 | 1011.1 |
| 20260503013039 | 22 | 302 | 11.3 | 17.7 | 0.00 | 0.00 | 0.00 | 42 | 1011.1 |
| 20260503012536 | 22 | 289 | 9.7 | 20.9 | 0.00 | 0.00 | 0.00 | 42 | 1011.2 |
| 20260503012032 | 22 | 15 | 6.4 | 19.3 | 0.00 | 0.00 | 0.00 | 42 | 1011.2 |
| 20260503011529 | 22 | 308 | 11.3 | 22.5 | 0.00 | 0.00 | 0.00 | 42 | 1011.4 |
| 20260503011027 | 22 | 327 | 9.7 | 25.7 | 0.00 | 0.00 | 0.00 | 42 | 1011.0 |
| 20260503010523 | 22 | 307 | 14.5 | 22.5 | 0.00 | 0.00 | 0.00 | 42 | 1011.1 |
| 20260503010021 | 22 | 302 | 16.1 | 20.9 | 0.00 | 0.00 | 0.00 | 41 | 1011.1 |
| 20260503005517 | 22 | 306 | 14.5 | 27.4 | 0.00 | 0.00 | 0.00 | 44 | 1011.2 |
| 20260503005015 | 22 | 285 | 6.4 | 14.5 | 0.00 | 0.00 | 0.00 | 48 | 1011.2 |
| 20260503004510 | 22 | 352 | 1.6 | 19.3 | 0.00 | 0.00 | 0.00 | 48 | 1011.3 |
| 20260503004009 | 23 | 326 | 16.1 | 24.1 | 0.00 | 0.00 | 0.00 | 48 | 1011.3 |
| 20260503003505 | 22 | 314 | 8.0 | 19.3 | 0.00 | 0.00 | 0.00 | 50 | 1011.2 |
| 20260503003003 | 23 | 315 | 4.8 | 14.5 | 0.00 | 0.00 | 0.00 | 51 | 1011.2 |
| 20260503002500 | 23 | 287 | 9.7 | 19.3 | 0.00 | 0.00 | 0.00 | 51 | 1011.4 |
| 20260503001955 | 23 | 293 | 6.4 | 17.7 | 0.00 | 0.00 | 0.00 | 50 | 1011.6 |
| 20260503001452 | 22 | 301 | 9.7 | 20.9 | 0.00 | 0.00 | 0.00 | 51 | 1011.3 |
| 20260503000950 | 22 | 262 | 3.2 | 12.9 | 0.00 | 0.00 | 0.00 | 52 | 1011.3 |
| 20260503000447 | 22 | 293 | 14.5 | 16.1 | 0.00 | 0.00 | 0.00 | 52 | 1011.4 |
| 20260502235944 | 23 | 301 | 6.4 | 16.1 | 0.00 | 0.00 | 0.00 | 51 | 1011.6 |
| 20260502235441 | 23 | 295 | 4.8 | 9.7 | 0.00 | 0.00 | 0.00 | 51 | 1011.6 |
| 20260502234939 | 23 | 275 | 3.2 | 17.7 | 0.00 | 0.00 | 0.00 | 52 | 1011.6 |
| 20260502234435 | 22 | 300 | 9.7 | 17.7 | 0.00 | 0.00 | 0.00 | 52 | 1011.6 |
| 20260502233932 | 23 | 325 | 6.4 | 19.3 | 0.00 | 0.00 | 0.00 | 53 | 1011.7 |
| 20260502233427 | 23 | 289 | 4.8 | 12.9 | 0.00 | 0.00 | 0.00 | 53 | 1011.4 |
| 20260502232925 | 23 | 299 | 6.4 | 20.9 | 0.00 | 0.00 | 0.00 | 53 | 1011.7 |
| 20260502232421 | 23 | 266 | 4.8 | 20.9 | 0.00 | 0.00 | 0.00 | 53 | 1011.8 |
| 20260502231918 | 23 | 286 | 8.0 | 12.9 | 0.00 | 0.00 | 0.00 | 53 | 1011.9 |
| 20260502231415 | 23 | 310 | 11.3 | 17.7 | 0.00 | 0.00 | 0.00 | 55 | 1012.0 |
| 20260502230913 | 23 | 294 | 8.0 | 11.3 | 0.00 | 0.00 | 0.00 | 54 | 1011.9 |
| 20260502230411 | 23 | 280 | 3.2 | 14.5 | 0.00 | 0.00 | 0.00 | 54 | 1012.1 |
| 20260502225908 | 23 | 326 | 3.2 | 17.7 | 0.00 | 0.00 | 0.00 | 55 | 1012.2 |
| 20260502225358 | 22 | 295 | 8.0 | 16.1 | 0.00 | 0.00 | 0.00 | 55 | 1012.2 |